SCP
0 0 0 0 0 0 0 0 0 0 0 0 0 0 0 0 0 0 0 0 0 0 0 0 0 0 0 0 0 0 0 0 0 0 0 0 0 0 0 0 0 0 0 0 0 0 0 0 0 0 0 0 0 0
0 0 0 0 0 0 0 0 0 0 0 0 0 0 0 0 0 0 0 0 0 0 0 0 0 0 0 -0 0 0 0 0 0 0 0 0 0 0 0 0 0 0 0 0 0 0 0 0 0 0 0 0 0 -0
0 0 0 0 0 0 0 0 0 0 0 0 0 0 0 0 0 0 0 0 0 0 0 0 0 0 0 0 0 0 0 0 0 0 0 0 0 0 0 0 0 0 0 0 0 0 0 -0 0 0 -0 0 0 0
0 0 0 0 0 0 0 0 0 0 -0 0 0 0 0 0 0 0 0 0 0 0 0 0 0 0 0 0 0 0 0 0 0 0 0 0 0 0 0 0 0 0 0 0 0 0 0 0 0 -0 0 0 0 0
0 0 0 0 0 0 0 0 0 0 0 0 0 0 0 0 0 0 0 0 0 0 0 0 0 0 0 0 0 0 0 0 0 0 0 0 0 0 0 0 0 0 0 0 0 0 0 0 0 0 0 0 0 0
0 0 0 0 0 0 0 0 0 0 0 0 -0 0 0 0 0 0 0 0 0 0 0 0 0 0 0 0 0 0 0 0 0 0 0 0 0 0 0 0 0 0 0 -0 -0 0 0 0 0 0 0 -0 0 -0
0 0 0 0 0 0 0 0 0 0 0 0 0 0 0 0 0 0 0 0 0 0 0 0 0 0 0 0 0 0 -0 0 0 -0 0 0 0 0 0 0 0 0 -0 0 0 -0 0 0 0 0 0 -0 -0 -0
0 0 0 0 0 0 0 0 0 0 0 0 0 0 0 0 0 0 0 0 0 0 0 0 0 0 0 0 0 0 0 -0 0 0 0 0 0 0 -0 -0 0 -0 -0 -0 -0 -0 0 0 0 0 0 -0 -0 -0
0 0 0 0 0 0 0 0 0 0 0 0 0 0 0 0 0 0 0 0 0 0 0 0 0 0 0 0 0 0 -0 -0 0 0 0 0 0 -0 -0 0 0 -0 0 -0 0 0 0 0 0 -0 -0 -0 -0 -0
0 0 0 0 0 0 0 0 0 -0 0 0 0 0 0 0 0 0 0 0 0 0 0 0 0 0 0 0 0 0 0 0 -0 -0 0 0 -0 0 0 0 -0 -0 -0 -0 0 0 0 0 -0 -0 -0 0 -0 -0
0 0 0 0 0 0 0 0 0 0 0 0 0 0 0 0 0 0 0 0 0 0 0 0 0 -0 0 0 0 0 0 0 -0 -0 0 0 0 0 0 0 -0 -0 -0 -0 -0 -0 -0 -0 0 -0 0 -0 -0 -0
0 0 0 0 0 0 0 0 -0 0 0 0 0 0 0 0 0 0 0 0 -0 -0 0 -0 -0 -0 0 0 0 0 0 -0 -0 0 -0 0 0 0 0 -0 -0 -0 -0 -0 -0 -0 -0 -0 0 0 -0 -0 -0 -0
0 0 -0 0 -0 -0 0 0 0 -0 -0 0 0 0 0 0 0 -0 -0 -0 -0 -0 0 0 0 -0 0 0 0 0 -0 -0 0 0 0 0 0 0 0 -0 -0 -0 -0 -0 0 -0 -0 -0 0 0 -0 -0 0 0
0 0 0 0 0 -0 0 -0 -0 0 0 0 0 0 0 0 -0 -0 -0 -0 -0 -0 0 0 0 -0 -0 0 0 -0 -0 0 0 -0 0 0 0 0 0 -0 -0 -0 0 0 0 0 -0 -0 0 0 0 0 0 0
0 0 0 -0 0 0 0 0 -0 0 0 0 0 0 -0 0 0 -0 -0 -0 -0 -0 -0 -0 -0 -0 -0 -0 0 -0 0 0 0 -0 0 0 0 0 -0 0 0 0 -0 -0 0 -0 -0 -0 0 0 0 0 -0 -0
0 -0 0 0 0 0 0 0 0 0 0 0 0 0 0 0 -0 -0 -0 -0 -0 -0 0 0 0 -0 -0 0 0 0 0 0 -0 -0 0 0 0 -0 -0 -0 -0 -0 0 0 -0 -0 -0 -0 -0 0 0 0 0 -0
-0 0 0 0 -0 0 0 0 0 0 0 0 0 0 0 0 -0 -0 -0 -0 -0 0 0 0 0 0 0 -0 -0 -0 -0 -0 0 0 0 0 0 -0 -0 -0 -0 -0 -0 -0 -0 0 0 0 -0 -0 -0 -0 0 0
0 0 0 0 0 0 0 0 0 0 0 0 -0 -0 -0 -0 -0 -0 -0 0 0 0 0 0 0 0 0 0 -0 -0 -0 0 0 -0 -0 -0 -0 0 0 0 -0 -0 -0 -0 -0 -0 0 0 -0 0 -0 -0 -0 -0
0 0 0 -0 0 0 0 0 0 -0 -0 -0 -0 -0 -0 -0 -0 -0 -0 0 0 0 0 0 0 0 0 -0 -0 -0 0 0 -0 -0 -0 0 0 0 0 0 -0 -0 -0 -0 -0 -0 -0 -0 -0 0 -0 -0 -0 -0
0 0 -0 -0 0 0 0 0 0 0 -0 -0 -0 -0 -0 -0 0 -0 0 0 0 0 0 0 0 0 0 -0 -0 -0 0 -0 -0 -0 -0 0 -0 -0 -0 -0 -0 -0 -0 -0 -0 -0 -0 0 0 0 -0 -0 0 0
0 0 -0 0 0 0 0 0 0 -0 0 -0 -0 0 0 0 -0 0 0 0 0 0 0 0 0 0 0 0 0 0 -0 0 -0 -0 0 -0 -0 0 -0 -0 -0 -0 -0 -0 -0 0 -0 0 0 0 0 0 -0 0
0 0 0 0 0 0 0 0 0 -0 -0 -0 -0 -0 -0 0 0 0 0 0 0 0 0 0 0 0 0 0 0 0 0 0 0 -0 -0 0 -0 -0 -0 -0 -0 -0 -0 -0 -0 0 -0 -0 -0 -0 -0 0 0 0
0 0 0 0 0 0 0 0 0 -0 -0 -0 0 -0 0 0 0 0 0 0 0 0 0 0 0 0 0 0 0 0 0 -0 0 0 0 0 0 0 -0 -0 -0 0 0 0 0 0 -0 -0 -0 -0 -0 -0 -0 -0
0 0 0 0 0 0 0 0 0 0 0 -0 -0 -0 0 0 0 0 0 0 0 0 0 0 0 0 0 0 0 0 0 0 0 0 0 0 0 0 0 0 0 0 0 0 0 -0 -0 -0 -0 -0 -0 -0 -0 -0
0 0 0 0 0 0 0 0 -0 0 0 -0 0 0 0 0 0 0 0 0 0 0 0 0 0 0 0 0 0 0 0 -0 -0 -0 0 0 0 0 0 0 0 0 0 0 0 0 0 0 0 -0 -0 -0 -0 -0
0 0 -0 -0 -0 0 -0 -0 -0 0 0 0 0 0 0 0 0 0 0 0 0 -0 0 0 0 -0 0 -0 -0 -0 0 0 0 0 0 0 0 0 0 0 0 0 0 0 0 0 0 0 0 0 0 0 0 -0
0 -0 0 0 -0 0 0 0 0 0 0 0 0 0 0 0 0 0 0 0 0 0 0 0 0 -0 -0 -0 0 0 0 0 0 0 0 0 0 0 0 0 0 0 0 0 0 0 0 0 0 0 0 0 0 -0
0 0 -0 -0 0 0 0 0 0 0 0 0 0 0 0 0 0 0 0 0 0 0 -0 -0 -0 -0 0 0 0 0 0 0 0 0 0 0 0 0 0 0 0 0 0 0 0 0 0 0 0 0 0 0 0 -0
0 -0 0 0 0 0 0 0 0 0 0 0 0 0 0 0 0 0 0 0 0 0 0 -0 0 0 0 0 0 0 0 0 0 0 0 0 0 0 0 0 0 0 0 0 0 0 0 0 0 0 0 0 0 0
0 0 0 0 0 0 0 0 0 0 0 0 0 0 0 0 0 0 0 0 0 0 0 0 0 0 0 0 0 0 0 0 0 0 0 0 0 0 0 0 0 0 0 0 0 0 0 0 0 0 0 0 0 0
0 0 0 0 0 0 0 0 0 0 0 0 0 0 0 0 0 0 0 0 0 0 0 0 0 0 0 0 0 0 0 0 0 0 0 0 0 0 0 0 0 0 0 0 0 0 0 0 0 0 0 0 0 0
0 0 0 0 0 0 0 0 0 0 0 0 0 0 0 0 0 0 0 0 0 0 0 0 0 0 0 0 0 0 0 0 0 0 0 0 0 0 0 0 0 0 0 0 0 0 0 0 0 0 0 0 0 0
0 0 0 0 0 0 0 0 0 0 0 0 0 0 0 0 0 0 0 0 0 0 0 0 0 0 0 0 0 0 0 0 0 0 0 0 0 0 0 0 0 0 0 0 0 0 0 0 0 0 0 0 0 0
Wind_Speed_500mb
44 42 39 37 37 37 35 32 30 30 24 19 17 18 17 19 21 20 18 14 17 11 23 24 22 16 15 15 5 9 15 2 4 6 4 1 3 3 3 6 2 6 7 6 5 8 9 11 16 12 26 63 45 65
41 40 40 36 32 33 34 31 27 27 20 18 16 16 15 18 20 23 25 20 17 28 27 47 53 53 52 49 27 11 5 3 6 5 3 3 2 4 2 3 2 4 4 1 6 6 4 13 23 41 33 46 73 70
41 39 38 37 35 35 34 31 28 29 25 27 22 19 12 18 23 25 26 25 23 22 35 17 17 11 5 11 16 14 12 13 8 10 5 4 6 3 3 1 4 2 3 6 9 1 25 39 32 41 57 58 71 74
38 36 35 34 35 35 34 30 32 32 30 27 23 22 18 23 24 28 28 22 19 13 9 11 7 27 48 46 41 40 41 12 11 21 5 3 5 3 2 4 4 5 3 3 13 19 37 5 46 59 71 75 69 75
37 35 34 34 34 35 32 31 34 36 29 16 20 21 20 19 28 25 24 29 24 13 9 21 57 5 10 14 27 36 43 44 16 5 6 5 5 4 2 4 9 3 1 4 10 24 21 45 52 58 64 74 77 83
38 35 34 32 30 32 28 30 29 37 39 30 29 22 18 23 28 23 9 15 22 24 9 7 14 12 6 16 15 30 32 27 12 7 7 7 6 5 3 5 3 6 1 7 11 27 38 50 49 53 70 79 86 90
36 34 33 30 26 26 23 24 27 30 34 28 18 20 23 29 32 17 8 7 4 12 5 10 9 9 9 3 6 26 30 14 14 8 6 4 0 5 3 6 2 3 13 21 17 37 38 36 63 74 70 82 89 91
34 32 31 29 24 19 20 21 20 20 23 21 22 22 19 29 19 22 21 17 10 12 5 5 7 10 4 6 8 16 12 16 14 7 5 5 4 8 6 5 5 7 21 14 29 35 41 51 58 66 74 79 89 91
33 32 30 25 23 19 19 18 18 16 16 14 21 22 35 22 12 10 10 6 12 13 5 6 4 5 9 5 4 17 14 6 8 3 4 5 3 6 3 3 3 14 18 31 41 42 42 48 56 66 71 83 84 93
31 27 25 22 20 21 20 18 15 17 15 14 21 14 10 10 11 14 13 11 11 7 10 7 7 8 4 4 5 5 9 4 5 5 8 4 3 4 7 7 10 18 24 32 41 47 51 55 58 67 69 74 80 89
29 26 24 23 18 19 18 15 12 10 14 39 14 10 16 19 14 6 5 6 7 6 10 11 20 11 5 6 4 5 3 4 3 4 4 3 1 5 7 10 18 23 25 29 33 37 38 40 48 54 67 73 80 89
29 28 26 27 23 21 20 15 16 19 14 17 12 21 19 9 6 3 5 7 8 6 8 8 11 18 8 12 5 6 1 2 3 10 4 3 4 8 8 18 23 24 26 28 32 34 35 39 42 47 55 69 80 86
28 27 28 27 25 23 25 21 23 45 31 13 6 8 8 6 7 9 10 7 6 7 8 8 4 10 11 12 8 4 6 2 9 4 1 4 8 7 13 15 19 21 27 33 37 37 38 42 45 49 53 66 78 85
31 29 31 31 26 26 26 24 25 41 16 10 10 10 8 9 9 9 8 2 5 8 5 14 8 10 9 7 4 4 4 4 5 4 4 5 7 7 10 14 18 26 32 33 37 42 43 45 47 47 54 61 74 84
30 27 23 23 28 22 30 12 27 45 14 7 8 8 11 12 6 4 9 12 12 15 16 9 5 6 3 4 2 3 5 3 1 3 4 9 9 9 12 18 21 25 30 32 36 41 45 43 47 50 55 60 69 81
26 25 32 27 22 29 24 25 50 38 9 8 9 5 6 5 11 16 20 22 19 17 10 7 3 3 3 2 4 3 1 2 3 4 12 10 15 14 14 19 22 25 31 35 36 42 39 42 43 47 53 62 67 77
22 24 25 22 24 30 23 50 31 14 10 7 8 16 10 5 10 5 10 17 11 8 3 5 3 0 2 2 3 3 2 4 13 16 15 19 15 12 14 18 23 26 31 36 40 40 37 36 40 51 58 59 60 69
30 22 17 21 33 37 42 34 12 10 9 12 8 12 21 16 13 10 9 6 6 4 2 2 5 3 2 2 2 6 9 15 18 21 21 18 12 11 13 18 21 24 29 33 39 39 41 43 47 52 51 49 51 66
30 20 22 28 44 33 13 15 10 8 14 6 15 16 8 11 22 19 13 11 12 6 4 3 4 3 5 6 4 15 24 20 27 24 21 13 12 14 15 18 21 25 29 35 41 43 42 44 44 46 45 46 50 60
24 25 28 22 30 12 10 9 14 8 9 11 12 8 12 7 9 12 12 17 6 5 5 5 4 4 3 5 12 23 29 36 38 26 16 14 15 13 16 20 22 24 25 31 39 45 48 49 53 52 53 51 52 59
29 29 21 41 28 8 8 11 10 8 6 8 5 12 5 8 9 9 9 20 7 5 5 9 4 5 13 17 24 29 32 38 27 22 22 18 12 11 15 19 20 22 28 34 37 43 47 51 52 54 56 55 48 51
40 42 42 34 6 5 4 11 6 9 6 4 12 11 6 6 8 9 21 6 7 8 8 6 17 25 26 30 30 28 34 26 22 25 22 18 16 13 15 18 18 22 28 33 35 38 41 44 47 51 56 57 56 56
51 41 13 7 5 5 6 11 6 9 5 4 10 4 3 4 7 22 5 9 6 8 7 24 29 24 28 35 35 30 28 30 30 28 22 19 17 16 17 18 20 20 22 29 30 32 35 39 43 47 49 53 56 59
35 10 7 8 6 7 7 8 8 5 5 4 4 4 5 5 18 2 3 8 11 14 26 35 30 36 42 36 30 25 26 28 28 26 20 15 13 14 14 17 20 23 27 28 28 31 34 37 40 43 46 49 52 54
11 7 8 6 6 7 6 7 6 5 5 5 6 4 5 8 3 4 2 3 11 25 38 35 29 32 35 31 26 26 24 27 25 25 21 12 9 9 11 13 16 20 23 26 31 33 34 36 38 41 43 46 48 49
7 7 11 15 9 7 7 7 10 10 5 6 3 7 6 4 3 4 4 7 13 37 40 33 32 37 32 28 31 26 24 22 20 21 19 13 8 10 8 8 9 17 24 27 29 31 32 34 35 37 39 42 44 45
7 7 9 10 7 6 5 6 7 4 6 5 5 3 3 4 4 5 6 9 16 27 28 26 21 22 29 24 29 22 20 22 19 16 15 13 13 14 13 11 12 18 23 26 28 31 33 35 36 37 38 38 41 43
3 9 8 17 8 3 3 4 6 5 3 10 11 4 4 3 4 5 5 10 23 27 31 24 19 26 28 24 21 25 28 21 17 15 14 12 11 9 10 13 18 20 22 26 29 31 33 34 35 36 36 37 38 39
5 11 12 8 2 5 3 2 3 4 5 8 5 4 6 8 7 8 12 26 36 37 31 29 31 27 25 29 32 29 26 21 12 12 7 9 6 6 10 15 18 20 23 27 29 32 35 35 34 33 32 32 34 35
6 20 6 7 2 3 6 3 4 8 16 19 17 23 22 18 21 20 21 25 27 31 32 31 33 29 30 31 27 17 17 15 9 5 3 2 3 6 12 17 20 20 20 22 27 31 33 33 32 31 30 30 32 34
18 9 7 7 5 7 15 20 22 25 17 22 32 40 25 19 30 24 24 25 19 26 36 40 38 38 28 21 16 15 15 11 4 1 1 2 5 12 17 16 15 16 19 23 26 27 28 29 29 29 30 32 34 36
9 7 8 6 5 11 14 10 10 11 12 15 12 16 15 11 10 10 29 39 36 37 42 44 27 21 19 19 17 15 14 16 11 6 3 7 10 12 14 15 16 18 20 22 24 25 25 26 28 29 30 32 34 36
11 18 18 10 6 6 7 9 7 7 12 9 10 12 11 8 8 6 14 26 29 36 36 25 20 22 23 21 21 20 14 8 5 7 10 11 11 13 14 14 15 17 19 20 20 21 22 24 25 26 28 30 33 35
Wind_Direction_500mb
290 293 291 288 282 278 277 276 278 290 282 269 272 276 271 271 272 275 274 249 241 241 271 262 250 234 254 231 242 327 312 162 270 249 258 13 272 47 357 316 273 200 187 190 199 236 265 23 340 322 319 305 305 312
289 291 291 291 288 289 279 270 267 280 260 252 263 258 258 265 263 265 264 270 262 249 263 283 281 277 261 254 265 249 269 348 276 288 341 294 289 280 212 255 321 241 345 328 241 296 338 297 298 301 303 302 308 310
285 287 286 283 284 291 294 266 253 260 266 253 259 267 248 258 256 261 260 266 277 277 293 273 280 258 263 238 238 223 228 228 223 348 310 312 272 286 284 318 282 90 181 257 318 147 320 315 312 323 317 310 309 305
285 284 284 282 283 290 291 274 245 252 280 261 250 257 247 243 254 254 253 264 267 276 278 274 289 290 294 265 262 249 227 196 284 312 273 267 264 221 285 336 277 306 305 341 270 295 325 306 319 320 319 314 311 311
283 281 282 286 286 289 294 288 248 243 255 274 256 259 249 243 246 249 252 254 261 255 281 286 301 252 323 288 269 220 225 234 270 263 226 241 263 248 189 250 257 198 137 276 292 329 297 298 312 317 312 314 316 313
279 280 282 284 288 290 293 293 274 236 244 264 270 244 250 235 237 242 258 257 240 244 283 297 304 306 315 334 208 203 211 226 228 243 241 242 268 270 284 262 112 139 147 280 273 301 302 301 307 316 318 318 317 314
278 276 276 278 284 298 298 301 294 230 236 252 251 237 253 230 232 211 222 190 205 194 254 288 288 280 317 231 164 208 224 217 209 247 236 259 7 304 231 259 113 218 299 308 291 319 313 318 317 321 320 319 319 317
279 275 273 272 278 294 294 298 289 244 229 248 252 236 239 222 214 231 258 255 283 209 215 270 278 293 263 201 194 183 194 194 219 235 209 226 214 218 251 260 198 306 320 305 317 316 308 313 316 321 326 325 324 324
282 273 270 270 267 270 285 288 280 236 227 232 255 248 179 191 215 234 273 234 238 212 238 226 261 287 337 324 261 179 184 178 203 217 204 185 217 230 311 209 11 346 336 315 318 320 324 325 325 327 329 330 327 327
293 281 267 260 262 264 261 270 257 234 249 220 197 173 175 176 184 141 142 170 206 226 229 244 229 261 292 3 299 240 182 196 191 181 162 200 249 102 92 72 3 344 333 329 325 331 332 328 331 331 329 330 330 332
274 274 259 244 256 257 244 252 266 231 206 193 169 156 141 139 151 156 166 195 198 243 224 236 218 236 264 228 273 243 209 190 215 133 218 217 163 83 95 15 357 352 341 331 323 319 322 324 329 332 335 336 338 343
272 260 252 248 253 252 241 239 237 235 200 199 181 133 141 154 162 191 207 189 212 249 210 227 229 210 228 208 240 232 256 187 208 146 221 207 99 93 32 7 4 356 351 353 348 338 339 342 346 343 343 345 349 349
270 255 250 250 246 243 238 221 240 216 209 179 148 128 139 148 196 207 201 198 215 204 234 222 221 190 205 205 240 239 217 128 132 219 233 68 130 58 18 19 22 18 3 354 353 353 351 355 1 358 352 3 1 353
261 254 251 233 237 241 228 224 242 195 175 177 156 155 199 188 224 207 235 150 195 247 352 310 228 192 187 183 232 232 90 159 215 225 101 104 110 57 45 33 16 356 353 351 350 350 353 357 2 3 6 10 5 358
257 253 247 244 232 231 203 225 211 187 171 172 168 210 213 227 225 251 228 236 242 266 296 307 273 207 189 230 249 141 184 229 347 93 82 111 93 78 55 24 8 1 360 357 354 355 356 3 6 8 12 16 10 10
239 247 238 235 230 193 196 212 193 193 196 208 213 223 212 230 249 234 235 246 261 255 261 224 246 242 178 283 205 203 231 180 118 111 117 115 106 87 54 27 17 11 8 6 3 2 6 11 11 12 17 27 17 18
216 226 240 227 196 180 193 187 180 188 205 206 231 222 218 256 259 242 245 260 236 203 177 191 175 180 196 222 198 195 179 103 134 125 118 118 106 79 40 26 19 15 14 14 12 15 17 16 20 24 24 21 17 24
211 226 204 171 169 175 176 188 182 191 210 214 222 227 213 225 238 230 262 255 196 144 194 107 139 200 252 216 198 154 127 120 122 128 127 113 83 46 40 30 26 26 27 26 25 26 27 28 30 33 27 20 21 25
201 199 186 179 169 166 151 175 194 200 217 216 242 242 225 231 235 240 269 226 194 193 332 233 192 225 225 216 169 143 146 144 143 140 131 108 71 74 55 43 43 40 41 40 39 39 37 35 34 30 27 25 24 25
188 177 187 184 194 158 151 165 177 202 203 216 218 215 194 203 218 240 238 179 145 176 196 226 221 212 225 186 151 151 149 149 143 136 125 111 94 66 59 53 51 50 55 50 45 43 41 39 36 31 28 29 26 23
170 176 177 174 161 136 156 163 179 201 199 217 209 186 198 215 209 213 235 201 179 215 237 226 207 188 151 139 142 143 144 149 149 142 143 131 108 75 65 55 52 51 51 48 43 39 37 34 31 31 30 30 30 25
158 172 156 168 127 141 134 173 153 165 198 277 170 189 211 190 181 176 151 146 199 231 228 204 159 139 133 136 138 142 146 151 146 139 128 114 104 82 65 61 54 50 47 44 40 35 33 31 28 29 29 28 29 27
158 159 122 127 126 132 142 172 181 193 204 201 148 183 223 162 157 153 141 164 234 200 186 149 141 135 138 136 137 136 137 140 139 144 140 127 110 89 73 66 61 55 45 40 36 32 30 27 26 28 27 27 27 26
165 118 134 147 143 151 161 187 202 186 186 182 180 190 155 124 157 181 133 183 176 181 159 151 145 137 139 139 141 149 156 157 151 151 148 131 110 98 80 71 62 56 51 40 32 28 25 24 24 24 25 25 24 24
128 157 146 142 180 163 194 163 185 181 202 177 202 160 129 150 129 152 166 96 148 158 156 154 153 152 149 151 143 137 148 163 165 160 154 140 91 89 87 73 58 50 43 35 27 23 20 20 20 19 19 20 21 21
107 163 176 184 166 212 191 165 188 186 176 162 167 127 128 131 100 117 28 21 162 164 162 161 158 159 157 156 153 143 148 160 164 159 151 141 101 82 85 77 62 40 34 28 21 18 17 16 16 15 15 15 16 18
141 181 195 189 179 185 195 162 157 162 198 142 143 120 110 130 119 88 66 70 153 172 169 162 160 172 168 161 162 149 149 155 162 158 142 122 111 106 93 74 46 28 20 16 14 13 13 11 10 9 9 8 10 11
158 169 166 174 182 144 174 150 163 206 176 133 126 103 117 63 76 20 46 106 140 151 161 158 147 154 156 156 161 153 142 144 146 136 117 109 103 92 57 32 19 13 7 3 3 3 4 5 4 3 2 2 3 4
205 167 141 151 55 150 223 253 173 136 107 125 103 99 90 73 40 87 103 129 137 146 152 152 148 159 150 138 133 128 119 123 117 135 109 109 86 34 12 5 1 356 349 347 350 353 356 358 358 357 357 358 359 360
150 155 105 110 21 69 10 351 98 120 120 121 109 108 90 82 74 94 111 131 156 160 156 154 144 142 140 142 131 143 155 154 144 111 48 2 344 354 352 351 346 344 346 348 348 348 350 354 355 358 1 1 1 3
137 124 92 79 88 70 89 113 123 116 103 98 126 120 118 107 80 89 115 119 133 141 135 132 138 135 142 152 149 151 156 170 208 285 89 63 351 336 335 340 343 344 343 343 346 350 354 356 0 3 5 5 5 6
133 133 126 112 103 123 115 58 60 63 72 92 81 111 108 90 73 97 113 123 128 130 139 134 130 136 143 143 139 137 134 132 126 110 29 349 350 352 351 353 354 351 350 350 351 354 359 3 6 8 9 10 9 8
98 105 106 102 109 103 86 91 78 72 53 62 61 78 82 79 94 111 126 137 135 150 150 153 159 154 146 140 132 125 117 104 64 32 14 7 11 13 7 4 -0 354 353 358 3 7 10 12 12 12 11 10 9 9
Wind_Speed_850mb
44 42 39 37 37 37 35 32 30 30 24 19 17 18 17 19 21 20 18 14 17 11 23 24 22 16 15 15 5 9 15 2 4 6 4 1 3 3 3 6 2 6 7 6 5 8 9 11 16 12 26 63 45 65
41 40 40 36 32 33 34 31 27 27 20 18 16 16 15 18 20 23 25 20 17 28 27 47 53 53 52 49 27 11 5 3 6 5 3 3 2 4 2 3 2 4 4 1 6 6 4 13 23 41 33 46 73 70
41 39 38 37 35 35 34 31 28 29 25 27 22 19 12 18 23 25 26 25 23 22 35 17 17 11 5 11 16 14 12 13 8 10 5 4 6 3 3 1 4 2 3 6 9 1 25 39 32 41 57 58 71 74
38 36 35 34 35 35 34 30 32 32 30 27 23 22 18 23 24 28 28 22 19 13 9 11 7 27 48 46 41 40 41 12 11 21 5 3 5 3 2 4 4 5 3 3 13 19 37 5 46 59 71 75 69 75
37 35 34 34 34 35 32 31 34 36 29 16 20 21 20 19 28 25 24 29 24 13 9 21 57 5 10 14 27 36 43 44 16 5 6 5 5 4 2 4 9 3 1 4 10 24 21 45 52 58 64 74 77 83
38 35 34 32 30 32 28 30 29 37 39 30 29 22 18 23 28 23 9 15 22 24 9 7 14 12 6 16 15 30 32 27 12 7 7 7 6 5 3 5 3 6 1 7 11 27 38 50 49 53 70 79 86 90
36 34 33 30 26 26 23 24 27 30 34 28 18 20 23 29 32 17 8 7 4 12 5 10 9 9 9 3 6 26 30 14 14 8 6 4 0 5 3 6 2 3 13 21 17 37 38 36 63 74 70 82 89 91
34 32 31 29 24 19 20 21 20 20 23 21 22 22 19 29 19 22 21 17 10 12 5 5 7 10 4 6 8 16 12 16 14 7 5 5 4 8 6 5 5 7 21 14 29 35 41 51 58 66 74 79 89 91
33 32 30 25 23 19 19 18 18 16 16 14 21 22 35 22 12 10 10 6 12 13 5 6 4 5 9 5 4 17 14 6 8 3 4 5 3 6 3 3 3 14 18 31 41 42 42 48 56 66 71 83 84 93
31 27 25 22 20 21 20 18 15 17 15 14 21 14 10 10 11 14 13 11 11 7 10 7 7 8 4 4 5 5 9 4 5 5 8 4 3 4 7 7 10 18 24 32 41 47 51 55 58 67 69 74 80 89
29 26 24 23 18 19 18 15 12 10 14 39 14 10 16 19 14 6 5 6 7 6 10 11 20 11 5 6 4 5 3 4 3 4 4 3 1 5 7 10 18 23 25 29 33 37 38 40 48 54 67 73 80 89
29 28 26 27 23 21 20 15 16 19 14 17 12 21 19 9 6 3 5 7 8 6 8 8 11 18 8 12 5 6 1 2 3 10 4 3 4 8 8 18 23 24 26 28 32 34 35 39 42 47 55 69 80 86
28 27 28 27 25 23 25 21 23 45 31 13 6 8 8 6 7 9 10 7 6 7 8 8 4 10 11 12 8 4 6 2 9 4 1 4 8 7 13 15 19 21 27 33 37 37 38 42 45 49 53 66 78 85
31 29 31 31 26 26 26 24 25 41 16 10 10 10 8 9 9 9 8 2 5 8 5 14 8 10 9 7 4 4 4 4 5 4 4 5 7 7 10 14 18 26 32 33 37 42 43 45 47 47 54 61 74 84
30 27 23 23 28 22 30 12 27 45 14 7 8 8 11 12 6 4 9 12 12 15 16 9 5 6 3 4 2 3 5 3 1 3 4 9 9 9 12 18 21 25 30 32 36 41 45 43 47 50 55 60 69 81
26 25 32 27 22 29 24 25 50 38 9 8 9 5 6 5 11 16 20 22 19 17 10 7 3 3 3 2 4 3 1 2 3 4 12 10 15 14 14 19 22 25 31 35 36 42 39 42 43 47 53 62 67 77
22 24 25 22 24 30 23 50 31 14 10 7 8 16 10 5 10 5 10 17 11 8 3 5 3 0 2 2 3 3 2 4 13 16 15 19 15 12 14 18 23 26 31 36 40 40 37 36 40 51 58 59 60 69
30 22 17 21 33 37 42 34 12 10 9 12 8 12 21 16 13 10 9 6 6 4 2 2 5 3 2 2 2 6 9 15 18 21 21 18 12 11 13 18 21 24 29 33 39 39 41 43 47 52 51 49 51 66
30 20 22 28 44 33 13 15 10 8 14 6 15 16 8 11 22 19 13 11 12 6 4 3 4 3 5 6 4 15 24 20 27 24 21 13 12 14 15 18 21 25 29 35 41 43 42 44 44 46 45 46 50 60
24 25 28 22 30 12 10 9 14 8 9 11 12 8 12 7 9 12 12 17 6 5 5 5 4 4 3 5 12 23 29 36 38 26 16 14 15 13 16 20 22 24 25 31 39 45 48 49 53 52 53 51 52 59
29 29 21 41 28 8 8 11 10 8 6 8 5 12 5 8 9 9 9 20 7 5 5 9 4 5 13 17 24 29 32 38 27 22 22 18 12 11 15 19 20 22 28 34 37 43 47 51 52 54 56 55 48 51
40 42 42 34 6 5 4 11 6 9 6 4 12 11 6 6 8 9 21 6 7 8 8 6 17 25 26 30 30 28 34 26 22 25 22 18 16 13 15 18 18 22 28 33 35 38 41 44 47 51 56 57 56 56
51 41 13 7 5 5 6 11 6 9 5 4 10 4 3 4 7 22 5 9 6 8 7 24 29 24 28 35 35 30 28 30 30 28 22 19 17 16 17 18 20 20 22 29 30 32 35 39 43 47 49 53 56 59
35 10 7 8 6 7 7 8 8 5 5 4 4 4 5 5 18 2 3 8 11 14 26 35 30 36 42 36 30 25 26 28 28 26 20 15 13 14 14 17 20 23 27 28 28 31 34 37 40 43 46 49 52 54
11 7 8 6 6 7 6 7 6 5 5 5 6 4 5 8 3 4 2 3 11 25 38 35 29 32 35 31 26 26 24 27 25 25 21 12 9 9 11 13 16 20 23 26 31 33 34 36 38 41 43 46 48 49
7 7 11 15 9 7 7 7 10 10 5 6 3 7 6 4 3 4 4 7 13 37 40 33 32 37 32 28 31 26 24 22 20 21 19 13 8 10 8 8 9 17 24 27 29 31 32 34 35 37 39 42 44 45
7 7 9 10 7 6 5 6 7 4 6 5 5 3 3 4 4 5 6 9 16 27 28 26 21 22 29 24 29 22 20 22 19 16 15 13 13 14 13 11 12 18 23 26 28 31 33 35 36 37 38 38 41 43
3 9 8 17 8 3 3 4 6 5 3 10 11 4 4 3 4 5 5 10 23 27 31 24 19 26 28 24 21 25 28 21 17 15 14 12 11 9 10 13 18 20 22 26 29 31 33 34 35 36 36 37 38 39
5 11 12 8 2 5 3 2 3 4 5 8 5 4 6 8 7 8 12 26 36 37 31 29 31 27 25 29 32 29 26 21 12 12 7 9 6 6 10 15 18 20 23 27 29 32 35 35 34 33 32 32 34 35
6 20 6 7 2 3 6 3 4 8 16 19 17 23 22 18 21 20 21 25 27 31 32 31 33 29 30 31 27 17 17 15 9 5 3 2 3 6 12 17 20 20 20 22 27 31 33 33 32 31 30 30 32 34
18 9 7 7 5 7 15 20 22 25 17 22 32 40 25 19 30 24 24 25 19 26 36 40 38 38 28 21 16 15 15 11 4 1 1 2 5 12 17 16 15 16 19 23 26 27 28 29 29 29 30 32 34 36
9 7 8 6 5 11 14 10 10 11 12 15 12 16 15 11 10 10 29 39 36 37 42 44 27 21 19 19 17 15 14 16 11 6 3 7 10 12 14 15 16 18 20 22 24 25 25 26 28 29 30 32 34 36
11 18 18 10 6 6 7 9 7 7 12 9 10 12 11 8 8 6 14 26 29 36 36 25 20 22 23 21 21 20 14 8 5 7 10 11 11 13 14 14 15 17 19 20 20 21 22 24 25 26 28 30 33 35
Wind_Direction_850mb
290 293 291 288 282 278 277 276 278 290 282 269 272 276 271 271 272 275 274 249 241 241 271 262 250 234 254 231 242 327 312 162 270 249 258 13 272 47 357 316 273 200 187 190 199 236 265 23 340 322 319 305 305 312
289 291 291 291 288 289 279 270 267 280 260 252 263 258 258 265 263 265 264 270 262 249 263 283 281 277 261 254 265 249 269 348 276 288 341 294 289 280 212 255 321 241 345 328 241 296 338 297 298 301 303 302 308 310
285 287 286 283 284 291 294 266 253 260 266 253 259 267 248 258 256 261 260 266 277 277 293 273 280 258 263 238 238 223 228 228 223 348 310 312 272 286 284 318 282 90 181 257 318 147 320 315 312 323 317 310 309 305
285 284 284 282 283 290 291 274 245 252 280 261 250 257 247 243 254 254 253 264 267 276 278 274 289 290 294 265 262 249 227 196 284 312 273 267 264 221 285 336 277 306 305 341 270 295 325 306 319 320 319 314 311 311
283 281 282 286 286 289 294 288 248 243 255 274 256 259 249 243 246 249 252 254 261 255 281 286 301 252 323 288 269 220 225 234 270 263 226 241 263 248 189 250 257 198 137 276 292 329 297 298 312 317 312 314 316 313
279 280 282 284 288 290 293 293 274 236 244 264 270 244 250 235 237 242 258 257 240 244 283 297 304 306 315 334 208 203 211 226 228 243 241 242 268 270 284 262 112 139 147 280 273 301 302 301 307 316 318 318 317 314
278 276 276 278 284 298 298 301 294 230 236 252 251 237 253 230 232 211 222 190 205 194 254 288 288 280 317 231 164 208 224 217 209 247 236 259 7 304 231 259 113 218 299 308 291 319 313 318 317 321 320 319 319 317
279 275 273 272 278 294 294 298 289 244 229 248 252 236 239 222 214 231 258 255 283 209 215 270 278 293 263 201 194 183 194 194 219 235 209 226 214 218 251 260 198 306 320 305 317 316 308 313 316 321 326 325 324 324
282 273 270 270 267 270 285 288 280 236 227 232 255 248 179 191 215 234 273 234 238 212 238 226 261 287 337 324 261 179 184 178 203 217 204 185 217 230 311 209 11 346 336 315 318 320 324 325 325 327 329 330 327 327
293 281 267 260 262 264 261 270 257 234 249 220 197 173 175 176 184 141 142 170 206 226 229 244 229 261 292 3 299 240 182 196 191 181 162 200 249 102 92 72 3 344 333 329 325 331 332 328 331 331 329 330 330 332
274 274 259 244 256 257 244 252 266 231 206 193 169 156 141 139 151 156 166 195 198 243 224 236 218 236 264 228 273 243 209 190 215 133 218 217 163 83 95 15 357 352 341 331 323 319 322 324 329 332 335 336 338 343
272 260 252 248 253 252 241 239 237 235 200 199 181 133 141 154 162 191 207 189 212 249 210 227 229 210 228 208 240 232 256 187 208 146 221 207 99 93 32 7 4 356 351 353 348 338 339 342 346 343 343 345 349 349
270 255 250 250 246 243 238 221 240 216 209 179 148 128 139 148 196 207 201 198 215 204 234 222 221 190 205 205 240 239 217 128 132 219 233 68 130 58 18 19 22 18 3 354 353 353 351 355 1 358 352 3 1 353
261 254 251 233 237 241 228 224 242 195 175 177 156 155 199 188 224 207 235 150 195 247 352 310 228 192 187 183 232 232 90 159 215 225 101 104 110 57 45 33 16 356 353 351 350 350 353 357 2 3 6 10 5 358
257 253 247 244 232 231 203 225 211 187 171 172 168 210 213 227 225 251 228 236 242 266 296 307 273 207 189 230 249 141 184 229 347 93 82 111 93 78 55 24 8 1 360 357 354 355 356 3 6 8 12 16 10 10
239 247 238 235 230 193 196 212 193 193 196 208 213 223 212 230 249 234 235 246 261 255 261 224 246 242 178 283 205 203 231 180 118 111 117 115 106 87 54 27 17 11 8 6 3 2 6 11 11 12 17 27 17 18
216 226 240 227 196 180 193 187 180 188 205 206 231 222 218 256 259 242 245 260 236 203 177 191 175 180 196 222 198 195 179 103 134 125 118 118 106 79 40 26 19 15 14 14 12 15 17 16 20 24 24 21 17 24
211 226 204 171 169 175 176 188 182 191 210 214 222 227 213 225 238 230 262 255 196 144 194 107 139 200 252 216 198 154 127 120 122 128 127 113 83 46 40 30 26 26 27 26 25 26 27 28 30 33 27 20 21 25
201 199 186 179 169 166 151 175 194 200 217 216 242 242 225 231 235 240 269 226 194 193 332 233 192 225 225 216 169 143 146 144 143 140 131 108 71 74 55 43 43 40 41 40 39 39 37 35 34 30 27 25 24 25
188 177 187 184 194 158 151 165 177 202 203 216 218 215 194 203 218 240 238 179 145 176 196 226 221 212 225 186 151 151 149 149 143 136 125 111 94 66 59 53 51 50 55 50 45 43 41 39 36 31 28 29 26 23
170 176 177 174 161 136 156 163 179 201 199 217 209 186 198 215 209 213 235 201 179 215 237 226 207 188 151 139 142 143 144 149 149 142 143 131 108 75 65 55 52 51 51 48 43 39 37 34 31 31 30 30 30 25
158 172 156 168 127 141 134 173 153 165 198 277 170 189 211 190 181 176 151 146 199 231 228 204 159 139 133 136 138 142 146 151 146 139 128 114 104 82 65 61 54 50 47 44 40 35 33 31 28 29 29 28 29 27
158 159 122 127 126 132 142 172 181 193 204 201 148 183 223 162 157 153 141 164 234 200 186 149 141 135 138 136 137 136 137 140 139 144 140 127 110 89 73 66 61 55 45 40 36 32 30 27 26 28 27 27 27 26
165 118 134 147 143 151 161 187 202 186 186 182 180 190 155 124 157 181 133 183 176 181 159 151 145 137 139 139 141 149 156 157 151 151 148 131 110 98 80 71 62 56 51 40 32 28 25 24 24 24 25 25 24 24
128 157 146 142 180 163 194 163 185 181 202 177 202 160 129 150 129 152 166 96 148 158 156 154 153 152 149 151 143 137 148 163 165 160 154 140 91 89 87 73 58 50 43 35 27 23 20 20 20 19 19 20 21 21
107 163 176 184 166 212 191 165 188 186 176 162 167 127 128 131 100 117 28 21 162 164 162 161 158 159 157 156 153 143 148 160 164 159 151 141 101 82 85 77 62 40 34 28 21 18 17 16 16 15 15 15 16 18
141 181 195 189 179 185 195 162 157 162 198 142 143 120 110 130 119 88 66 70 153 172 169 162 160 172 168 161 162 149 149 155 162 158 142 122 111 106 93 74 46 28 20 16 14 13 13 11 10 9 9 8 10 11
158 169 166 174 182 144 174 150 163 206 176 133 126 103 117 63 76 20 46 106 140 151 161 158 147 154 156 156 161 153 142 144 146 136 117 109 103 92 57 32 19 13 7 3 3 3 4 5 4 3 2 2 3 4
205 167 141 151 55 150 223 253 173 136 107 125 103 99 90 73 40 87 103 129 137 146 152 152 148 159 150 138 133 128 119 123 117 135 109 109 86 34 12 5 1 356 349 347 350 353 356 358 358 357 357 358 359 360
150 155 105 110 21 69 10 351 98 120 120 121 109 108 90 82 74 94 111 131 156 160 156 154 144 142 140 142 131 143 155 154 144 111 48 2 344 354 352 351 346 344 346 348 348 348 350 354 355 358 1 1 1 3
137 124 92 79 88 70 89 113 123 116 103 98 126 120 118 107 80 89 115 119 133 141 135 132 138 135 142 152 149 151 156 170 208 285 89 63 351 336 335 340 343 344 343 343 346 350 354 356 0 3 5 5 5 6
133 133 126 112 103 123 115 58 60 63 72 92 81 111 108 90 73 97 113 123 128 130 139 134 130 136 143 143 139 137 134 132 126 110 29 349 350 352 351 353 354 351 350 350 351 354 359 3 6 8 9 10 9 8
98 105 106 102 109 103 86 91 78 72 53 62 61 78 82 79 94 111 126 137 135 150 150 153 159 154 146 140 132 125 117 104 64 32 14 7 11 13 7 4 -0 354 353 358 3 7 10 12 12 12 11 10 9 9